This demonstration page uses our WeatherBlox Daily Observations layout. Learn more.

Left ArrowRight Arrow

41.55636, -103.73856

Hourly Observations for July 21, 2020

Temp ( °F °C ) Dew Point ( °F °C ) Humidity (%) Winds ( mph kmh ) Pressure ( in mb ) Visibility ( mi km ) Precip ( " mm )
6:58 pm 18:58 Clear 84 29.1 51 10.5 31 31 NE 10 17 29.87 1012 10 16 0.00 0.00
7:58 pm 19:58 Mostly Clear 78 25.3 54 12 44 44 Calm 29.88 1012 10 16 0.00 0.00
8:58 pm 20:58 Mostly Clear 73 23 57 13.9 57 57 E 7 11 29.88 1012 10 16 0.00 0.00
9:58 pm 21:58 Mostly Cloudy 66 19 58 14.5 75 75 E 10 17 29.98 1015 10 16 0.00 0.00
10:58 pm 22:58 Mostly Clear 66 19.1 56 13.1 68 68 SE 12 19 29.98 1015 10 16 0.00 0.00
11:58 pm 23:58 Mostly Clear 64 17.9 56 13.5 76 76 SSE 6 9 29.99 1016 10 16 0.00 0.00
12:58 am 00:58 Clear 64 17.7 56 13.5 77 77 ENE 7 11 30.00 1016 10 16 0.00 0.00
1:58 am 01:58 Mostly Cloudy 62 16.4 57 13.9 85 85 NE 6 9 30.02 1017 10 16 0.00 0.00
2:58 am 02:58 Mostly Clear 61 16.3 57 13.9 86 86 WSW 3 6 30.03 1017 10 16 0.00 0.00
3:58 am 03:58 Mostly Cloudy with Nearby Thunderstorms 61 16.1 58 14.3 89 89 SSE 3 6 30.03 1017 10 16 0.00 0.00
4:58 am 04:58 Mostly Cloudy 60 15.6 57 14 90 90 ESE 5 7 30.02 1017 10 16 0.00 0.00
5:58 am 05:58 Mostly Cloudy 60 15.8 58 14.2 90 90 ENE 3 6 30.03 1017 10 16 0.00 0.00
6:58 am 06:58 Mostly Cloudy 61 16.2 57 13.9 86 86 Calm 30.03 1017 10 16 0.00 0.00
7:58 am 07:58 Mostly Sunny 64 17.9 57 13.7 77 77 ENE 3 6 30.03 1017 10 16 0.00 0.00
8:58 am 08:58 Sunny 69 20.8 56 13.6 64 64 ENE 5 7 30.02 1017 10 16 0.00 0.00
9:58 am 09:58 Sunny 73 22.9 56 13.3 55 55 E 7 11 30.02 1017 10 16 0.00 0.00
10:58 am 10:58 Sunny 76 24.3 53 11.6 45 45 SE 6 9 30.00 1016 10 16 0.00 0.00
11:58 am 11:58 Mostly Sunny 79 26.1 54 12 42 42 S 6 9 29.99 1016 10 16 0.00 0.00
12:58 pm 12:58 Mostly Sunny 80 26.7 56 13.5 44 44 ESE 18 30 29.96 1015 10 16 0.00 0.00
1:58 pm 13:58 Mostly Cloudy 81 27.3 55 13 41 41 E 15 24 29.95 1014 10 16 0.00 0.00
2:58 pm 14:58 Mostly Cloudy 81 27.1 54 12.4 40 40 ESE 14 22 29.94 1014 10 16 0.00 0.00
3:58 pm 15:58 Mostly Sunny 83 28.4 52 11.2 34 34 E 16 26 29.91 1013 10 16 0.00 0.00
4:58 pm 16:58 Mostly Cloudy 84 28.7 51 10.6 32 32 E 15 24 29.90 1012 10 16 0.00 0.00
5:58 pm 17:58 Mostly Sunny 82 27.6 51 10.5 34 34 E 17 28 29.88 1012 10 16 0.00 0.00

Powered by AerisWeather